Theta_e
293 292 292 292 291 290 290 289 289 289 289 288 285 285 286 287 288 289 289 288 288 288 286 285 286 287 288 288 288 288 289 290 294 293 296 298 297 296 299 303 308 314 319
293 293 292 291 290 290 289 288 288 288 287 285 284 283 284 286 287 287 287 286 286 286 285 283 283 284 286 287 287 287 287 289 290 292 294 292 291 290 291 293 297 300 309
293 292 290 289 289 289 288 287 286 286 286 284 282 281 282 284 285 285 284 284 283 283 283 281 281 282 284 286 286 285 286 287 288 290 289 289 288 287 288 289 291 295 300
292 290 289 289 288 287 287 286 285 285 284 281 280 280 280 282 284 285 284 282 279 280 280 279 279 280 282 283 284 284 284 285 286 287 287 287 287 286 287 287 288 289 294
291 289 288 287 287 286 285 284 283 283 282 281 279 278 279 281 283 283 282 281 278 277 277 277 278 279 280 281 281 282 283 283 284 285 284 284 284 284 285 286 287 287 291
289 287 286 285 285 284 284 283 282 280 280 280 278 278 278 280 282 283 281 280 278 276 276 276 277 278 276 278 279 279 280 282 282 283 283 283 283 283 283 284 285 286 289
287 286 285 284 284 283 282 281 280 279 278 278 277 278 278 278 280 281 281 278 277 277 276 276 277 277 276 275 276 277 277 279 280 280 280 280 280 281 281 282 283 284 285
286 285 284 283 282 282 282 281 280 279 279 278 277 277 278 278 278 279 278 277 275 275 276 276 276 277 277 275 275 275 275 276 278 278 278 277 278 279 279 280 280 282 284
284 283 283 282 281 281 281 281 281 280 279 278 277 276 277 278 277 276 276 276 275 275 276 277 276 277 277 275 274 273 273 274 275 276 275 276 275 277 278 278 278 280 281
283 282 282 281 281 281 281 281 281 281 279 277 276 275 275 277 277 277 275 276 275 275 275 276 276 276 276 276 273 273 272 273 273 273 272 273 273 274 275 276 276 278 279
283 282 281 281 281 281 281 281 282 282 280 277 275 274 274 275 276 276 276 275 276 275 275 275 276 275 276 275 273 273 272 272 272 271 271 271 271 272 273 274 274 276 276
283 282 282 282 282 281 282 282 281 281 279 277 275 273 273 274 275 275 276 276 276 275 275 275 275 274 274 274 273 272 271 271 271 270 270 270 270 270 272 272 272 273 274
282 282 282 282 282 281 281 280 280 280 277 276 275 273 273 274 274 274 275 275 275 275 275 274 274 273 272 272 272 271 270 270 270 269 269 269 269 270 271 271 271 272 272
281 281 282 281 280 279 279 278 278 277 277 275 274 273 273 274 274 275 275 275 275 274 274 273 272 272 271 271 270 270 270 270 269 269 269 268 268 269 270 269 269 270 270
282 282 281 280 279 277 275 275 275 275 275 275 273 273 273 274 274 275 276 275 274 273 272 271 271 270 270 269 269 269 269 269 269 268 268 268 267 268 269 268 268 269 269
281 281 280 279 278 276 276 275 275 275 275 274 274 273 274 274 274 274 275 274 273 272 271 270 270 269 269 268 268 268 268 267 268 267 267 267 266 267 267 268 268 268 268
282 281 281 279 276 276 276 275 275 275 275 275 274 274 274 274 274 274 273 272 271 270 269 269 269 268 268 267 266 266 266 266 266 266 265 265 265 265 266 267 267 267 267
282 281 280 280 279 278 278 278 276 275 274 274 273 273 273 274 274 272 271 270 269 269 268 268 267 267 266 265 264 264 264 264 264 263 263 263 263 264 265 266 266 266 266
281 280 280 279 279 278 278 278 278 277 274 273 272 272 273 273 272 270 269 268 268 267 267 266 266 265 264 263 263 263 263 263 262 261 261 261 261 262 263 264 265 266 266
280 280 279 279 278 278 278 277 277 276 275 273 272 271 272 271 270 269 268 267 266 265 265 264 264 263 263 262 261 262 262 261 260 259 259 259 260 261 262 263 264 265 265
279 278 278 278 278 277 276 276 275 274 273 272 271 270 270 270 269 268 267 266 265 264 264 263 263 262 262 261 261 261 260 260 259 259 259 259 260 260 261 262 263 265 264
278 278 278 277 276 275 275 274 274 273 272 271 270 270 270 269 268 267 266 265 264 263 263 262 262 261 261 260 260 260 259 259 258 258 258 259 260 261 261 262 262 264 263
277 277 276 275 275 274 274 273 272 272 272 271 270 269 269 268 267 266 265 264 263 262 262 261 261 260 260 260 259 259 259 258 258 258 258 259 260 260 261 261 263 263 263
277 276 275 274 273 273 272 272 271 271 271 270 270 269 268 267 266 265 264 264 263 262 261 260 260 260 259 259 259 259 259 258 258 259 259 260 261 262 262 262 263 263 263
276 275 274 273 273 273 272 271 271 270 270 269 269 268 267 266 266 265 264 263 262 261 260 260 259 259 259 259 258 259 259 258 259 259 260 261 262 262 263 263 264 263 263
275 274 274 272 272 272 271 271 270 270 269 268 268 267 266 265 265 264 263 262 262 261 261 260 259 258 258 258 258 258 259 259 259 260 260 261 261 262 263 263 263 263 263
Wind_Speed
8 9 10 11 10 11 11 11 11 16 17 18 18 20 19 22 23 18 17 20 23 21 25 25 25 24 20 21 20 19 16 14 7 18 20 21 25 27 28 22 18 16 13
8 8 10 12 13 12 12 12 13 16 17 17 19 22 18 19 23 19 20 21 24 25 23 26 26 26 25 21 21 22 21 19 18 15 19 23 24 27 25 23 22 17 18
9 11 12 13 13 13 13 13 14 16 17 18 19 23 19 20 21 21 21 22 24 26 22 29 27 26 27 26 23 25 25 21 20 14 16 22 24 31 29 27 24 28 23
10 12 13 14 14 14 14 13 14 15 20 19 20 21 22 21 22 20 19 22 26 22 24 21 29 29 28 27 24 25 25 22 21 18 19 20 26 32 26 30 33 35 28
8 12 14 14 14 14 14 15 12 12 17 18 22 25 23 23 24 20 21 23 28 26 25 25 28 28 24 25 24 27 27 24 22 21 20 19 25 30 32 29 26 32 22
16 15 14 14 14 14 13 14 14 16 17 19 23 25 27 25 23 20 21 22 26 28 27 25 25 30 30 24 24 23 25 29 24 23 21 23 24 28 29 26 27 28 7
15 14 12 11 13 14 14 15 16 19 21 22 23 27 27 27 21 22 20 24 23 23 26 30 27 29 32 29 25 26 26 25 26 25 24 25 23 30 30 26 28 23 21
18 16 14 15 15 15 16 16 17 19 21 23 25 27 29 27 24 19 21 22 23 23 25 27 32 31 29 29 25 30 31 29 27 26 26 26 25 28 29 23 24 22 21
15 14 14 14 15 15 16 15 15 17 21 23 24 25 27 26 24 22 21 23 26 27 28 25 29 30 28 29 31 28 31 33 29 23 23 24 25 26 29 29 32 25 16
16 15 15 16 17 16 16 15 15 15 20 22 23 23 24 25 22 21 23 24 24 26 28 28 26 26 26 28 33 31 29 32 31 33 34 34 34 34 32 35 30 25 24
19 17 17 17 16 15 15 14 14 15 18 21 23 23 21 21 22 21 20 24 22 24 26 25 25 24 25 26 30 33 29 27 30 30 29 33 36 39 38 37 34 30 25
22 18 18 16 15 15 15 12 14 18 20 20 20 22 23 22 20 21 20 19 18 21 21 21 21 23 24 25 27 28 30 33 28 29 30 32 32 37 39 36 34 32 26
22 20 18 17 15 15 16 18 19 19 18 18 19 19 20 21 20 20 18 19 17 17 18 18 18 19 22 25 24 26 31 32 28 28 27 27 30 29 30 34 32 32 30
22 20 21 17 18 14 13 14 15 15 17 15 16 15 16 18 19 17 16 19 17 17 17 19 20 20 23 24 27 27 28 28 28 26 26 27 29 28 27 31 30 32 31
23 20 21 21 20 18 18 18 18 15 13 15 14 13 14 16 17 14 15 16 17 17 17 21 24 25 23 25 23 26 24 24 25 25 24 25 27 26 26 29 28 28 26
25 22 20 19 19 20 20 17 13 15 14 13 11 11 11 12 14 13 13 15 14 15 21 24 24 23 22 22 23 23 24 26 25 24 25 24 26 25 26 26 27 26 26
24 22 23 20 22 19 16 18 18 11 10 9 10 9 9 10 11 13 12 13 15 16 22 22 22 22 20 21 21 22 23 25 23 23 24 24 25 25 25 24 26 26 28
23 20 20 22 20 19 15 14 14 15 14 12 7 7 7 6 10 12 12 11 18 19 19 19 20 19 18 19 21 23 23 23 23 23 23 23 24 24 24 25 25 27 28
24 21 18 16 14 13 12 11 10 11 17 13 6 7 10 10 11 12 12 15 16 16 15 17 17 17 18 20 20 20 20 20 22 24 25 24 25 23 23 24 24 26 28
22 19 18 16 16 13 13 13 13 14 19 11 9 8 10 8 10 11 12 11 13 14 14 14 14 14 16 19 19 19 18 22 25 26 25 25 25 23 22 23 25 27 28
20 17 18 15 16 14 12 12 12 12 13 11 10 8 8 8 9 8 9 10 10 10 10 11 10 12 15 19 18 18 16 23 27 25 25 24 26 25 26 25 25 26 27
20 20 19 18 15 14 13 13 12 12 11 12 11 9 4 4 4 5 6 6 7 6 6 9 8 11 14 18 14 15 18 25 25 23 24 25 25 24 27 28 25 25 29
21 18 18 17 16 15 15 13 13 12 11 11 11 7 4 3 2 2 3 5 7 7 4 7 7 10 13 16 12 13 19 24 22 20 21 25 24 24 27 27 23 27 28
20 19 18 14 16 14 12 11 12 12 10 9 7 6 4 3 2 1 4 6 8 9 3 6 9 9 13 13 14 15 21 22 19 16 19 22 23 26 26 27 23 29 27
19 18 17 17 18 16 13 12 12 11 10 9 8 6 5 4 3 4 6 7 9 8 4 8 8 9 14 11 14 19 22 20 15 15 18 19 22 23 25 24 27 30 29
19 17 15 16 15 14 15 14 13 12 10 9 7 7 6 6 5 6 8 8 11 8 7 8 7 10 13 13 17 22 20 17 13 14 16 19 22 25 24 26 27 30 27
Wind_Direction
103 94 86 80 69 64 63 50 43 40 43 51 43 37 40 41 40 30 36 36 39 40 33 27 22 18 21 22 20 11 358 346 309 318 319 331 343 345 340 340 332 344 336
129 106 95 94 87 76 72 62 58 53 51 54 46 35 46 47 46 22 40 38 37 31 35 26 19 19 18 19 20 12 4 4 345 329 335 347 353 353 355 357 353 347 342
135 113 99 93 87 80 74 71 64 59 54 46 49 38 46 47 45 35 41 41 39 36 31 31 17 18 17 21 23 19 10 7 358 353 348 350 355 359 358 360 1 357 2
119 107 99 94 92 85 81 76 72 68 60 52 44 49 40 43 41 44 49 47 42 43 36 30 26 21 22 23 24 22 15 13 9 8 2 358 2 0 4 0 354 354 359
142 112 106 101 95 89 85 76 68 70 69 61 49 49 47 39 32 50 55 53 45 42 36 33 30 28 30 30 29 25 21 18 16 15 14 7 7 4 6 350 350 347 2
128 114 109 105 101 94 89 81 72 73 73 68 54 49 44 40 40 49 54 55 49 42 34 31 30 28 29 33 35 35 31 23 17 19 16 12 9 6 358 355 357 359 359
128 121 117 116 109 99 93 88 85 78 73 69 63 58 49 43 45 51 56 57 53 43 39 37 34 32 26 33 36 45 47 34 32 27 21 17 8 4 0 357 357 352 337
122 120 123 120 111 109 106 99 92 84 77 70 64 62 58 45 46 61 65 60 54 53 47 39 39 36 30 27 31 39 43 41 32 30 28 21 17 13 10 4 355 352 352
129 130 131 128 119 117 113 110 108 97 86 78 66 63 61 55 47 50 67 59 56 52 49 43 38 36 30 27 33 30 33 35 34 29 26 22 22 22 19 14 11 7 360
146 142 136 128 122 120 120 114 108 115 99 83 74 66 59 58 49 48 52 58 51 45 44 44 38 35 33 31 35 30 27 23 24 22 24 25 25 26 21 20 10 8 1
140 141 133 127 125 126 120 118 112 115 111 87 73 63 64 54 53 48 49 49 52 47 42 39 40 35 36 36 36 35 29 26 25 22 17 16 16 17 15 14 17 10 359
144 143 137 136 133 122 114 117 113 112 108 98 79 65 61 57 48 48 47 46 46 53 44 42 40 36 36 36 36 33 30 33 28 22 19 14 9 6 8 5 6 7 8
148 144 145 136 127 127 125 112 105 109 102 93 85 72 63 56 52 48 45 42 50 54 48 44 43 43 40 40 35 32 32 31 28 23 18 10 7 5 6 1 1 1 360
153 152 146 143 129 130 128 120 114 109 106 97 94 82 66 55 47 43 43 42 52 56 52 49 49 47 40 39 32 33 29 29 28 23 16 9 6 6 7 4 359 357 354
156 160 148 136 134 118 106 110 104 96 104 110 101 80 62 51 43 40 37 46 48 55 54 47 43 38 35 30 27 25 23 21 20 18 13 9 5 3 2 3 2 358 357
158 160 160 153 149 137 129 118 106 103 98 91 87 82 71 56 47 43 49 53 51 55 54 47 41 36 33 25 20 15 17 15 14 12 10 7 3 0 355 359 1 359 353
164 172 173 163 156 154 147 141 138 127 112 103 77 77 64 60 55 52 54 58 51 55 50 45 39 34 30 25 19 14 10 9 8 9 6 3 358 356 357 355 357 356 351
149 145 146 140 145 161 162 161 159 160 148 126 93 84 63 63 67 59 57 64 52 48 45 39 35 31 28 22 17 13 12 7 8 4 360 358 356 353 352 352 353 352 349
149 146 148 149 150 147 143 143 141 162 161 140 113 103 92 78 78 65 47 58 55 46 41 36 32 28 18 12 11 13 15 8 1 0 360 359 358 350 346 348 346 350 348
149 152 155 155 151 155 156 147 135 126 144 135 82 95 91 86 70 60 52 54 53 43 33 28 25 15 8 7 9 13 9 1 358 359 358 355 351 346 343 342 343 348 347
149 149 152 160 157 154 145 143 142 131 133 119 96 105 95 97 85 69 51 40 39 34 22 16 18 6 1 3 7 10 2 352 354 357 354 349 352 351 350 343 339 346 344
153 152 156 151 150 150 150 143 144 142 129 139 126 121 125 109 88 61 42 29 14 11 11 3 9 358 354 359 2 3 349 349 353 353 351 353 355 356 349 344 334 344 340
162 160 158 163 160 150 150 150 143 145 148 138 144 142 129 116 91 49 19 359 350 351 352 357 353 347 346 355 354 349 346 347 344 346 347 348 353 349 346 335 330 339 336
166 166 164 163 159 162 166 165 171 157 150 154 153 154 151 150 159 322 325 334 338 348 350 349 341 342 342 354 343 338 338 339 343 348 346 345 347 348 347 341 328 336 333
169 168 170 166 167 168 165 163 155 156 168 170 167 166 167 194 229 283 296 313 329 340 334 338 335 336 339 343 331 329 332 340 347 348 347 351 349 350 345 339 337 340 335
175 178 179 174 178 175 173 177 179 179 174 179 190 200 210 229 251 278 281 303 322 329 326 338 338 337 337 333 329 327 332 342 349 348 353 354 0 353 348 345 347 345 336